Regional Weather Roundup
Issued by NWS San Angelo, TX

Home | Current Version | Previous Version | Text Only | Print | Product List | Glossary On
Versions: 1 2 3 4 5 6 7 8 9 10 11 12 13 14 15 16 17 18 19 20 21 22 23 24 25 26 27 28 29 30 31 32 33 34 35 36 37 38 39 40 41 42 43 44 45 46 47 48 49 50
000
ASUS44 KSJT 011710
RWRSJT
WEST CENTRAL TEXAS REGIONAL WEATHER ROUNDUP
NATIONAL WEATHER SERVICE SAN ANGELO TX
1200 PM CDT WED JUL 01 2015

NOTE: "FAIR" INDICATES FEW OR NO CLOUDS BELOW 12,000 FEET WITH NO
SIGNIFICANT WEATHER AND/OR OBSTRUCTIONS TO VISIBILITY.

TXZ049-054-064>066-071>073-076>078-098-099-113-114-127-128-139-140-
154-155-168>170-011800
...LOCATIONS ACROSS WEST CENTRAL TEXAS...

CITY           SKY/WX    TMP DP  RH WIND       PRES   REMARKS
SAN ANGELO     MOSUNNY   83  66  56 S15G21    30.06F
ABILENE        SUNNY     84  68  58 S20       30.05F
DYESS AFB      MOSUNNY   83  69  63 S14       30.03F
JUNCTION       PTSUNNY   83  66  56 S10       30.08S
SWEETWATER     PTSUNNY   79  68  69 SW15      30.10S
BROWNWOOD      MOSUNNY   86  66  51 SW15G21   30.06S
COLEMAN        MOSUNNY   85  68  57 SW10G21   30.06F
SONORA         PTSUNNY   81  66  61 S13G20    30.13R
OZONA          PTSUNNY   79  63  57 S16       30.12S
BRADY          SUNNY     84  64  51 N12       30.07F
$$

TEXAS PANHANDLE/OKLAHOMA PANHANDLE

CITY           SKY/WX    TMP DP  RH WIND       PRES   REMARKS
AMARILLO       MOSUNNY   87  62  43 SW16      30.03F
BORGER         SUNNY     89  62  40 W15       29.97F
CANADIAN       MOSUNNY   91  64  41 W15       29.92F
DALHART        MOSUNNY   93  54  26 MISG      30.03F
DUMAS          SUNNY     89  57  32 W16       30.00F
GUYMON         NOT AVBL
HEREFORD       SUNNY     88  60  38 MISG      30.06S
PAMPA          MOSUNNY   87  59  38 SW16      29.99F
PERRYTON       SUNNY     93  55  27 W17G23    29.93F
$$

SOUTHERN PANHANDLE/SOUTH PLAINS/ROLLING PLAINS

CITY           SKY/WX    TMP DP  RH WIND       PRES   REMARKS
LUBBOCK        MOSUNNY   85  63  47 S14       30.06F
SNYDER         PTSUNNY   77  68  73 SW12G18   30.08S
CHILDRESS      SUNNY     90  65  43 SW16G23   29.97S
SEMINOLE         N/A    N/A N/A N/A MISG        N/A
$$

PERMIAN BASIN

CITY           SKY/WX    TMP DP  RH WIND       PRES   REMARKS
MIDLAND        MOSUNNY   79  66  64 SE13      30.08S
ODESSA         MOSUNNY   80  65  59 S13       30.09S
WINK           SUNNY     85  64  49 E8        30.04F
$$

FAR WEST/SOUTHWEST MOUNTAINS/TRANS PECOS

CITY           SKY/WX    TMP DP  RH WIND       PRES   REMARKS
ALPINE         SUNNY     84  57  39 N7        30.19F
DRYDEN           N/A     83  68  60 SE9       30.05F
EL PASO        MOSUNNY   85  55  35 VRB3      30.09F
FORT STOCKTON  SUNNY     85  65  51 E7        30.05F
GUADALUPE PASS SUNNY     78  57  48 SW7       30.21F
MARFA          SUNNY    N/A N/A N/A CALM      30.19S
PECOS          SUNNY     84  63  48 N6        30.03F
$$

DALLAS/FORT WORTH METROPLEX

CITY           SKY/WX    TMP DP  RH WIND       PRES   REMARKS
DFW AIRPORT    PTSUNNY   86  70  58 S14G20    30.01S
FTW MEACHAM    PTSUNNY   86  71  60 SW10      30.02R
DAL-EXECUTIVE  PTSUNNY   86  70  58 VRB7      30.02S
GRAND PRAIRIE  SUNNY     84  70  61 S9        30.03S
ADDISON        PTSUNNY   86  68  54 S10G17    30.03R
MESQUITE       SUNNY     86  70  58 S13       30.03S
LANCASTER      NOT AVBL
$$

NORTH CENTRAL TEXAS

CITY           SKY/WX    TMP DP  RH WIND       PRES   REMARKS
SHRMAN/DENISON PTSUNNY   87  72  61 S15G21    30.01S
GAINESVILLE    MOSUNNY   87  69  55 S12G18    30.01S
BRIDGEPORT     PTSUNNY   86  71  61 SW10G18   30.03S
DENTON         PTSUNNY   86  71  60 S14       30.00S
WAXAHACHIE     MOSUNNY   85  72  63 SW10G16   30.04S
GRANBURY         N/A     87  70  57 S7        30.03F
$$

WESTERN NORTH TEXAS

CITY           SKY/WX    TMP DP  RH WIND       PRES   REMARKS
WICHITA FALLS  MOSUNNY   88  69  53 SW15G23   29.96F
VERNON         SUNNY     92  61  34 SW15G22   29.96S
BRECKENRIDGE   SUNNY     86  67  53 SW10G17   30.03S
COMANCHE       SUNNY     85  70  61 SW10G17   30.06S
$$

CENTRAL AND SOUTH CENTRAL TEXAS

CITY           SKY/WX    TMP DP  RH WIND       PRES   REMARKS
AUSTIN/BERGSTM PTSUNNY   85  75  72 S10       30.05F
WACO           SUNNY     87  70  56 SW10      30.04S
HILLSBORO      SUNNY     85  69  59 S13G21    30.04F
TEMPLE         MOSUNNY   86  70  58 S15       30.05S
KILLEEN-GRAY   MOSUNNY   84  70  61 S15       30.06S
FORT HOOD      MOSUNNY   86  71  59 SW14      30.04F
GEORGETOWN     PTSUNNY   82  70  65 S8        30.04S
LAGO VISTA     PTSUNNY   84  70  61 SW9       30.09S
SAN MARCOS     PTSUNNY  N/A N/A N/A S9          N/A
NEW BRAUNFELS  LGT RAIN  82  74  76 SE8       30.05F
RANDOLPH AFB   MOSUNNY   85  73  66 S8        30.06F
SAN ANTONIO    PTSUNNY   86  73  65 S12       30.06F
STINSON        MOSUNNY   86  73  65 S9        30.04S
PLEASANTON     NOT AVBL
LA GRANGE      MOSUNNY   87  77  73 S8        30.04S
GIDDINGS       MOSUNNY   86  75  69 S6        30.09F
$$

EAST TEXAS

CITY           SKY/WX    TMP DP  RH WIND       PRES   REMARKS
PARIS          MOSUNNY   88  64  45 SW15      30.02R
CLARKSVILLE    NOT AVBL
TYLER          SUNNY     87  71  58 SW12      30.05S
LONGVIEW       MOSUNNY   90  72  55 SW13      30.05R
PALESTINE      MOSUNNY   88  72  58 S9        30.07S
NACOGDOCHES    MOSUNNY  N/A N/A N/A SW12      30.06F
$$

TEXAS HILL COUNTRY AND EDWARDS PLATEAU

CITY           SKY/WX    TMP DP  RH WIND       PRES   REMARKS
LLANO          MOSUNNY   88  68  51 S13G23    30.10S
HORSESHOE BAY  PTSUNNY   85  69  58 SW7       30.08S
KERRVILLE      SUNNY     82  71  69 S12       30.10S
FREDERICKSBRG  PTSUNNY   81  67  62 S14       30.09F
ROCKSPRINGS    MOSUNNY   81  68  65 SE15      30.13F
HONDO          MOSUNNY   84  72  67 S15       30.08S
UVALDE         MOSUNNY   80  73  77 SE7       30.07S
DEL RIO        PTSUNNY   82  69  64 SE14      30.04S
$$

SOUTHEAST TEXAS

CITY           SKY/WX    TMP DP  RH WIND       PRES   REMARKS
COLLEGE STN    MOSUNNY   85  74  69 SW9       30.06F
CALDWELL       SUNNY     86  75  70 S12       30.09S
CROCKETT       MOSUNNY   88  77  70 SW8       30.10F
BRENHAM        MOSUNNY   87  75  66 S8        30.07S
HUNTSVILLE     MOSUNNY   86  74  67 SW8       30.08S
CONROE         MOSUNNY   86  73  65 S12       30.08S
HOUSTON BUSH   TSTM      79  72  78 S22G29    30.11R VSB 1
HOUSTON HOBBY  CLOUDY    77  69  76 SW9       30.07R
PERLAND        PTSUNNY   87  77  72 S12G22    30.08S THUNDER
WHARTON        LGT RAIN  79  74  86 E5        30.07F
$$

THE UPPER TEXAS COAST

CITY           SKY/WX    TMP DP  RH WIND       PRES   REMARKS
ORANGE         PTSUNNY   88  79  75 S12       30.11R
PORT ARTHUR    PTSUNNY   86  77  74 S13       30.07F
GALVESTON      MOSUNNY   89  80  74 S15       30.08S
ANGLETON       MOSUNNY   90  77  65 S13       30.06S
BAY CITY       CLOUDY    90  78  66 S13       30.06S
$$

TEXAS COASTAL BEND, RIO GRANDE PLAINS DEEP SOUTH TEXAS

CITY           SKY/WX    TMP DP  RH WIND       PRES   REMARKS
VICTORIA       PTSUNNY   90  76  63 SE16G25   30.04F
BEEVILLE       PTSUNNY   79  74  84 S24G31    30.07R
ROCKPORT       LGT RAIN  74  71  91 SW15G25   30.08R FOG
PORT ARANSAS   HVY RAIN  73  71  95 SW18G28   30.09R
PORT LAVACA    PTSUNNY   87  77  72 SE13      30.05R
CORPUS CHRISTI RAIN      73  71  93 S14       30.10R FOG
KINGSVILLE NAS RAIN      74  74 100 SE5       30.10R FOG
COTULLA        SUNNY     86  73  65 SE6       30.03F
LAREDO         CLOUDY    79  70  74 SE18      30.06R
BROWNSVILLE    LGT RAIN  75  72  90 S15       30.05R
PORT ISABEL    NOT AVBL
HEBBRONVILLE     N/A     72  70  93 SE15G22   30.08S
MCALLEN        LGT RAIN  78  72  81 SE17G24   30.04S
WESLACO        DRIZZLE   74  70  87 SE9       30.04S
FALFURRIAS     CLOUDY    74  71  91 CALM      30.09R
EDINBURG       CLOUDY    79  71  77 SE15      30.05S
$$



USA.gov is the U.S. government's official web portal to all federal, state and local government web resources and services.